Flag for Spain Weather past 2 weeks in Alicante, Spain

54 °F


Feels Like: 54 °F
Forecast: 46 / 64 °F
Wind: 1 mph from North

Location: Alicante / El Altet

Current Time: Nov 29, 2015 at 12:15:25 AM

Latest Report: Nov 28, 2015 at 11:00 PM

Visibility: 10 mi

Pressure: 30.30 "Hg

Humidity: 82%

Dew point: 48 °F

Location of AlicanteLocation

Historic Weather in Alicante — Graph


Alicante temperature yesterday

Maximum temperature yesterday: 70 °F (at 12:00 PM)
Minimum temperature yesterday: 45 °F (at 3:00 AM)
Average temperature yesterday: 57 °F

Past Weeks' High & Low Weather Summary

High79 °F (Nov 20, 4:00 PM)100% (Nov 15, 8:30 PM)30.48 "Hg (Nov 15, 8:30 PM)
Low41 °F (Nov 24, 5:30 AM)22% (Nov 26, 2:00 PM)29.80 "Hg (Nov 21, 12:30 PM)
Average59 °F62%30.17 "Hg
* Reported Nov 13 10:00 PM — Nov 28 10:30 PM, Alicante, Weather by CustomWeather, © 2015

Note: Actual official high and low records may vary slightly from our data, if they occured in-between our weather recording intervals... More about our weather records


Alicante weather history for previous 24 hours

Time TempWeatherWind HumidityBarometerVisibility
10:30 PM
Sat, Nov 28
55 °FClear.No wind82%30.30 "Hg10 mi
10:00 PM54 °FPassing clouds.3 mph82%30.27 "HgN/A
9:30 PM52 °FClear.3 mph88%30.27 "Hg10 mi
9:00 PM54 °FClear.2 mph82%30.24 "Hg10 mi
8:30 PM54 °FClear.No wind82%30.24 "Hg10 mi
8:00 PM55 °FClear.No wind82%30.24 "Hg10 mi
7:30 PM57 °FClear.2 mph72%30.21 "Hg10 mi
7:00 PM59 °FClear.1 mph72%30.21 "Hg10 mi
6:30 PM61 °FClear.1 mph68%30.18 "Hg10 mi
6:00 PM61 °FClear.2 mph68%30.18 "Hg10 mi
5:30 PM63 °FSunny.2 mph64%30.18 "Hg10 mi
5:00 PM64 °FPassing clouds.3 mph56%30.15 "HgN/A
4:30 PM66 °FPassing clouds.5 mph49%30.15 "HgN/A
4:00 PM66 °FPassing clouds.8 mph46%30.15 "HgN/A
3:30 PM68 °FPassing clouds.5 mph40%30.12 "HgN/A
3:00 PM68 °FSunny.6 mph40%30.12 "Hg10 mi
2:30 PM70 °FPassing clouds.5 mph40%30.12 "HgN/A
2:00 PM70 °FPassing clouds.3 mph40%30.12 "HgN/A
1:30 PM70 °FSunny.2 mph38%30.12 "Hg10 mi
1:00 PM70 °FSunny.2 mph35%30.12 "Hg10 mi
12:30 PM68 °FSunny.1 mph40%30.15 "Hg10 mi
12:00 PM70 °FSunny.No wind38%30.15 "Hg10 mi
11:30 AM66 °FSunny.2 mph46%30.15 "Hg10 mi
11:00 AM64 °FSunny.7 mph49%30.15 "Hg10 mi
10:30 AM63 °FSunny.6 mph56%30.12 "Hg10 mi
10:00 AM61 °FSunny.7 mph55%30.12 "Hg10 mi
9:30 AM57 °FSunny.8 mph63%30.12 "Hg10 mi
9:00 AM52 °FSunny.3 mph72%30.12 "Hg10 mi
8:30 AM48 °FSunny.2 mph82%30.09 "Hg10 mi
7:30 AM48 °FClear.1 mph76%30.09 "Hg10 mi
7:00 AM48 °FPassing clouds.7 mph76%30.07 "HgN/A
6:30 AM46 °FClear.3 mph82%30.07 "Hg10 mi
5:30 AM48 °FClear.2 mph76%30.07 "Hg10 mi
5:00 AM48 °FClear.5 mph82%30.07 "Hg10 mi
4:30 AM50 °FClear.9 mph76%30.04 "Hg10 mi
4:00 AM54 °FClear.12 mph67%30.04 "Hg10 mi
3:30 AM48 °FClear.2 mph87%30.04 "Hg10 mi
3:00 AM45 °FClear.2 mph93%30.04 "Hg10 mi
2:30 AM48 °FClear.No wind87%30.04 "Hg10 mi
2:00 AM48 °FClear.1 mph94%30.04 "Hg10 mi
1:30 AM48 °FClear.3 mph94%30.07 "Hg10 mi
1:00 AM50 °FClear.6 mph88%30.07 "Hg10 mi
12:30 AM48 °FClear.5 mph94%30.07 "Hg10 mi
12:00 AM50 °FPassing clouds.3 mph88%30.07 "HgN/A
Weather by CustomWeather, © 2015

See weather overviewHow to use our weather pages